星链-3167 (STARLINK-3167 )

导读

STARLINK-3167是美国SpaceX星链互联网卫星项目中的卫星,于北京时间2022年2月3日8时发射,属于星链计划批量组网卫星之一,主要承担近地轨道全球低延迟互联网覆盖服务,旨在为全球偏远区域、各类移动载体提供高速宽带通信服务,延续了星链星座低成本批量组网的发展思路。

Basic Information
目录编号:
51460
目录名称:
STARLINK-3167
国际标识:
2022-010E
轨道中心:
EARTH
卫星名称:
星链-3167
卫星全名:
星链-3167 (STARLINK-3167 )
卫星状态:
已陨落 最后检测时间 2024-12-24
发射日期:
2022-02-03 UTC
国别 :
美国 (US)
星等 :
--
Orbit Information
数据来源 国际轨道数据
星历时间: 2024-12-24T22:30:32+0800
轨道信息已过期540天
半长轴: 6520.922km
偏心率: 0.000445
轨道倾角: 53.196°
近地点辐角 344.344°
升交点赤经 72.521°
平近点角 119.400°
近地点: 139.885km
远地点: 145.689km
周期: 87.342分钟
每日圈数: 16.486911
Detailed Information
固有亮度:
5
最大亮度:
2.5
卫星平台:
Starlink v1.5
覆盖范围:
全球
运营商:
太空探索技术公司
运营商所在国:
美国
制造商(研发单位):
太空探索技术公司
制造商所在国:
美国
使用方式:
暂无
Satellite Introduction
星链(Starlink)计划是由太空探索技术公司(SpaceX)提出的一个巨型低轨卫星互联网星座项目,计划在2019年至2024年间在太空搭建由约1.2万颗卫星组成的“星链”网络,其中1584颗将部署在地球上空550千米处的近地轨道,并从2020年开始工作。该卫星仍在工作。